Location: Colle Santa Colomba
(42.0333°N, 12.5667°E)
Time: 06:06:05
(UTC+00:00)

CENTAUR R/B - Visible Passes

Search period start: 21 May 2022 00:00
Search period end: 31 May 2022 00:00
Orbit: 716 x 1471 km, 63.4° (Epoch: 08 May)

Date Brightness Start Highest point End Pass type
(mag) Time Alt. Az. Time Alt. Az. Time Alt. Az.
21 May 3.4 19:39:12 10° NW 19:47:36 81° WSW 19:55:27 15° SSE visible
21 May 5.0 21:31:45 10° WNW 21:37:31 20° WSW 21:42:39 12° SW visible
22 May 3.4 18:50:50 10° NNW 18:59:07 72° NE 19:08:10 10° SE visible
22 May 4.5 20:42:16 10° NW 20:49:33 32° WSW 20:56:13 13° SSW visible
23 May 4.0 19:53:22 10° NW 20:01:26 50° WSW 20:09:51 11° S visible
24 May 3.5 19:04:47 10° NW 19:13:09 75° WSW 19:22:11 10° SSE visible
24 May 5.2 20:57:43 10° WNW 21:02:56 18° WSW 21:08:19 10° SW visible
25 May 4.7 20:08:00 10° NW 20:15:02 29° WSW 20:22:24 10° SSW visible
26 May 4.2 19:19:00 10° NW 19:26:57 45° WSW 19:35:23 10° S visible
27 May 5.4 20:23:48 10° WNW 20:28:22 15° WSW 20:33:03 10° SW visible
28 May 5.0 19:33:46 10° WNW 19:40:30 26° WSW 19:47:30 10° SSW visible
30 May 5.5 19:50:04 10° WNW 19:53:46 13° WSW 19:57:34 10° SW visible
